Weather in Simav

Turkey     39°05′21″N   28°58′39″E
temp.,
°C
wind,
m/s
gust,
m/s
humid.,
%
clouds,
%
prec.,
mm/h
press.,
hPa
HPBL,
m
24 january, mon
mon2400:00−12n229594 0.0 102529
03:00−13nne229584 0.0 102614
06:00−14nne229552 0.0 102615
09:00−13ne229218 0.0 102719
12:00−7ne226448 0.0 1024448
15:00−5ne226052 0.0 1023720
18:00−8nne3381100 0.0 102530
21:00−12nne3391100 0.0 102829
25 january, tue
tue2500:00−12nne4392100 0.0 102847
03:00−10nne4590100 0.0 102792
06:00−10nne5883100 0.0 1025163
09:00−9nne51383100 0.0 1025505
12:00−6nne81378100 0.0 1022920
15:00−5nne81180100 0.1 10201175
18:00−6nne51093100 0.7 1021943
21:00−8n41091100 0.9 1022553
26 january, wed
wed2600:00−8n3893100 0.2 1022547
03:00−9n3692100 0.3 1023352
06:00−11n3394100 0.0 102366
09:00−11n339576 0.0 102462
12:00−6n587798 0.0 1022973
15:00−5n5671100 0.0 10211163
18:00−8n33887 0.0 102334
21:00−12n339541 0.0 102724
27 january, thu
thu2700:00−12n329542 0.0 102822
03:00−13nne339542 0.0 102827
06:00−13n329541 0.0 102821
09:00−12nne329436 0.0 103032
12:00−5nne23808 0.0 1027374
15:00−3nne346880 0.0 1025951
18:00−7nne22845 0.0 102610
21:00−10nne22875 0.0 102912
28 january, fri
fri2800:00−11nne22905 0.0 102911
03:00−11nne22895 0.0 102911
06:00−11ne11855 0.0 102810
09:00−10ene11835 0.0 102911
12:00−3sse21655 0.0 1026222
15:00−2sse11675 0.0 1025277
18:00−5se11792 0.0 102610
21:00−7ene22790 0.0 102810